Date String (YYYY-MM-DD hh:mm:ss) UTC,Instrument flags,Ambient pressure (hPa),Sample flow (lpm),Bypass flow (lpm),Sample temperature (°C),Ambient temperature (°C),ASC tube jacket temperature (°C),LED temperature (°C),Box temperature (°C),Sample RH (%),Span deviation,Mass concentration (μg/m³),Mass concentration (μg/m³),Mass concentration (μg/m³)
DateTimeUTC,F1_M11,P_M11,Q1_M11,Q2_M11,T1_M11,T2_M11,T3_M11,T4_M11,T5_M11,U1_M11,ZSPAN_M11,X2_M11,X0_M11,X1_M11
2023-03-10 19:00:00,,0816.4,5.00,0.00,22.5,21.1,00.0,31.1,24.3,17.4,-000.8,0011.66,0015.02,0011.29
2023-03-10 19:01:00,,0816.4,5.01,0.00,22.5,21.2,00.0,31.1,24.3,17.4,-001.0,0011.67,0014.82,0011.26
2023-03-10 19:02:00,,0816.4,5.00,0.00,22.5,21.2,00.0,31.1,24.3,17.6,-001.2,0011.69,0015.28,0011.28
2023-03-10 19:03:00,,0816.3,5.00,0.00,22.5,21.2,00.0,31.1,24.3,17.6,-001.1,0011.67,0015.82,0011.25
2023-03-10 19:04:00,,0816.3,5.00,0.00,22.5,21.3,00.0,31.2,24.4,17.6,-001.0,0011.68,0015.88,0011.23
2023-03-10 19:05:00,,0816.3,4.99,0.00,22.6,21.2,00.0,31.2,24.4,17.6,-001.1,0011.64,0015.84,0011.20
2023-03-10 19:06:00,,0816.3,5.00,0.00,22.6,21.2,00.0,31.2,24.3,17.6,-001.4,0011.64,0015.81,0011.18
2023-03-10 19:07:00,,0816.3,5.01,0.00,22.6,21.2,00.0,31.2,24.3,17.5,-001.6,0011.60,0015.79,0011.16
2023-03-10 19:08:00,,0816.3,5.00,0.00,22.6,21.2,00.0,31.2,24.4,17.4,-001.6,0011.59,0016.11,0011.14
2023-03-10 19:09:00,,0816.1,5.00,0.00,22.6,21.2,00.0,31.2,24.3,17.3,-001.7,0011.58,0016.18,0011.14
2023-03-10 19:10:00,,0816.2,5.01,0.00,22.6,21.2,00.0,31.2,24.4,17.4,-002.1,0011.58,0016.23,0011.12
2023-03-10 19:11:00,,0816.1,4.98,0.00,22.6,21.2,00.0,31.2,24.3,17.3,-002.2,0011.59,0016.58,0011.12
2023-03-10 19:12:00,,0816.2,4.98,0.00,22.6,21.1,00.0,31.2,24.3,17.2,-002.2,0011.58,0016.87,0011.12
2023-03-10 19:13:00,,0816.1,4.99,0.00,22.5,21.1,00.0,31.2,24.3,17.4,-002.0,0011.55,0017.12,0011.07
2023-03-10 19:14:00,,0816.1,5.00,0.00,22.5,21.1,00.0,31.2,24.3,17.3,-002.2,0011.56,0016.72,0011.08
2023-03-10 19:15:00,,0816.2,5.00,0.00,22.6,21.2,00.0,31.2,24.3,17.4,-002.2,0011.60,0017.33,0011.11
2023-03-10 19:16:00,,0816.1,5.01,0.00,22.6,21.2,00.0,31.2,24.4,17.6,-002.2,0011.64,0017.37,0011.14
2023-03-10 19:17:00,,0816.0,5.00,0.00,22.6,21.2,00.0,31.2,24.4,17.3,-002.1,0011.64,0017.37,0011.15
2023-03-10 19:18:00,,0816.0,5.00,0.00,22.6,21.2,00.0,31.2,24.4,17.3,-001.9,0011.71,0017.48,0011.18
2023-03-10 19:19:00,,0816.0,5.00,0.00,22.6,21.2,00.0,31.3,24.4,17.2,-001.8,0011.73,0017.18,0011.18
2023-03-10 19:20:00,,0816.0,5.01,0.00,22.6,21.2,00.0,31.3,24.4,17.2,-001.9,0011.73,0017.15,0011.19
2023-03-10 19:21:00,,0816.1,5.01,0.00,22.6,21.3,00.0,31.3,24.4,17.4,-001.7,0011.73,0017.12,0011.20
2023-03-10 19:22:00,,0816.1,5.00,0.00,22.6,21.3,00.0,31.3,24.4,17.5,-001.5,0011.74,0016.78,0011.21
2023-03-10 19:23:00,,0816.1,5.00,0.00,22.6,21.3,00.0,31.3,24.5,17.4,-001.4,0011.75,0017.30,0011.22
2023-03-10 19:24:00,,0816.0,5.00,0.00,22.6,21.3,00.0,31.3,24.4,17.4,-001.5,0011.78,0017.13,0011.26
2023-03-10 19:25:00,,0816.0,5.01,0.00,22.6,21.2,00.0,31.3,24.4,17.4,-001.5,0011.80,0017.54,0011.28
2023-03-10 19:26:00,,0816.1,5.00,0.00,22.6,21.2,00.0,31.3,24.4,17.4,-001.5,0011.78,0017.12,0011.29
2023-03-10 19:27:00,,0816.1,4.99,0.00,22.6,21.1,00.0,31.3,24.4,17.3,-001.7,0011.80,0017.41,0011.31
2023-03-10 19:28:00,,0816.1,5.00,0.00,22.6,21.1,00.0,31.3,24.4,17.4,-001.8,0011.82,0017.57,0011.32
2023-03-10 19:29:00,,0816.0,5.00,0.00,22.6,21.1,00.0,31.3,24.4,17.4,-002.0,0011.82,0017.68,0011.33
2023-03-10 19:30:00,,0816.0,5.00,0.00,22.6,21.1,00.0,31.3,24.4,17.3,-001.9,0011.84,0017.91,0011.35
2023-03-10 19:31:00,,0815.9,5.01,0.00,22.6,21.1,00.0,31.3,24.4,17.3,-001.5,0011.89,0018.81,0011.37
2023-03-10 19:32:00,,0815.8,5.00,0.00,22.6,21.1,00.0,31.3,24.4,17.3,-001.6,0011.97,0019.33,0011.41
2023-03-10 19:33:00,,0815.9,5.00,0.00,22.6,21.0,00.0,31.3,24.4,17.3,-001.8,0012.00,0019.46,0011.44
2023-03-10 19:34:00,,0815.8,5.00,0.00,22.6,21.0,00.0,31.3,24.4,17.3,-001.7,0012.02,0018.93,0011.48
2023-03-10 19:35:00,,0815.7,5.00,0.00,22.6,21.0,00.0,31.3,24.3,17.3,-001.7,0012.07,0018.29,0011.51
2023-03-10 19:36:00,,0815.7,5.00,0.00,22.6,21.0,00.0,31.3,24.3,17.4,-001.7,0012.15,0018.24,0011.55
2023-03-10 19:37:00,,0815.7,4.99,0.00,22.6,20.9,00.0,31.3,24.3,17.5,-001.8,0012.19,0019.43,0011.57
2023-03-10 19:38:00,,0816.0,5.00,0.00,22.6,20.9,00.0,31.3,24.3,17.5,-001.7,0012.28,0019.45,0011.63
2023-03-10 19:39:00,,0816.1,5.00,0.00,22.6,20.9,00.0,31.3,24.3,17.4,-001.7,0012.33,0019.47,0011.67
2023-03-10 19:40:00,,0816.0,4.99,0.00,22.6,20.9,00.0,31.3,24.3,17.4,-001.6,0012.35,0020.29,0011.68
2023-03-10 19:41:00,,0815.4,5.00,0.00,22.5,21.0,00.0,31.3,24.3,17.4,-001.6,0012.39,0020.53,0011.71
2023-03-10 19:42:00,,0815.4,5.00,0.00,22.6,21.0,00.0,31.3,24.4,17.4,-001.8,0012.47,0019.79,0011.76
2023-03-10 19:43:00,,0815.4,5.00,0.00,22.6,21.0,00.0,31.3,24.3,17.4,-002.1,0012.52,0020.21,0011.82
2023-03-10 19:44:00,,0815.4,5.01,0.00,22.5,20.9,00.0,31.3,24.3,17.4,-002.0,0012.57,0020.59,0011.87
2023-03-10 19:45:00,,0815.3,5.00,0.00,22.5,20.9,00.0,31.3,24.3,17.4,-002.1,0012.65,0020.86,0011.90
2023-03-10 19:46:00,,0815.4,5.00,0.00,22.5,20.8,00.0,31.3,24.3,17.4,-002.1,0012.71,0021.30,0011.94
2023-03-10 19:47:00,,0815.3,4.99,0.00,22.5,20.8,00.0,31.3,24.2,17.6,-001.9,0012.75,0021.24,0011.99
2023-03-10 19:48:00,,0815.4,5.00,0.00,22.5,20.8,00.0,31.3,24.2,17.6,-001.9,0012.82,0020.11,0012.05
2023-03-10 19:49:00,,0815.4,5.00,0.00,22.5,20.9,00.0,31.2,24.3,17.5,-002.0,0012.86,0020.27,0012.07
2023-03-10 19:50:00,,0815.3,5.00,0.00,22.5,20.9,00.0,31.2,24.3,17.6,-001.9,0012.91,0020.60,0012.12
2023-03-10 19:51:00,,0815.4,4.99,0.00,22.5,20.9,00.0,31.2,24.3,17.6,-002.1,0012.96,0019.70,0012.17
2023-03-10 19:52:00,,0815.4,5.00,0.00,22.5,20.9,00.0,31.2,24.2,17.5,-002.1,0012.93,0019.68,0012.19
2023-03-10 19:53:00,,0815.3,5.01,0.00,22.5,20.9,00.0,31.2,24.2,17.5,-002.2,0012.92,0020.11,0012.21
2023-03-10 19:54:00,,0815.3,5.00,0.00,22.5,20.9,00.0,31.2,24.3,17.5,-001.8,0012.92,0019.56,0012.22
2023-03-10 19:55:00,,0815.2,5.00,0.00,22.5,21.0,00.0,31.2,24.3,17.7,-001.7,0012.94,0019.78,0012.23
2023-03-10 19:56:00,,0815.1,5.00,0.00,22.5,21.0,00.0,31.2,24.3,17.5,-001.7,0012.97,0020.47,0012.27
2023-03-10 19:57:00,,0815.4,5.00,0.00,22.5,21.0,00.0,31.2,24.3,17.4,-001.8,0013.01,0020.52,0012.29
2023-03-10 19:58:00,,0815.4,5.02,0.00,22.5,21.0,00.0,31.2,24.3,17.6,-001.9,0013.06,0020.48,0012.31
2023-03-10 19:59:00,,0815.4,5.00,0.00,22.5,21.0,00.0,31.2,24.3,17.5,-001.9,0013.04,0020.75,0012.30
